TimeEST,TemperatureF,Dew PointF,Humidity,Sea Level PressureIn,VisibilityMPH,Wind Direction,Wind SpeedMPH,Gust SpeedMPH,PrecipitationIn,Events,Conditions,WindDirDegrees,DateUTC
12:56 AM,41.0,36.0,82,29.60,10.0,SSW,13.8,19.6,0.00,,Overcast,210,2013-02-27 05:56:00
1:56 AM,41.0,37.0,86,29.62,10.0,SSW,11.5,-,N/A,,Overcast,210,2013-02-27 06:56:00
2:56 AM,41.0,36.0,82,29.63,10.0,SW,15.0,-,0.00,,Overcast,230,2013-02-27 07:56:00
3:29 AM,41.0,35.6,81,29.62,10.0,SW,16.1,21.9,N/A,,Overcast,230,2013-02-27 08:29:00
3:56 AM,41.0,36.0,82,29.63,10.0,SW,17.3,24.2,N/A,,Overcast,230,2013-02-27 08:56:00
4:19 AM,41.0,35.6,81,29.64,10.0,SW,17.3,23.0,N/A,,Overcast,230,2013-02-27 09:19:00
4:56 AM,39.9,35.1,83,29.65,10.0,SW,15.0,23.0,0.00,,Overcast,230,2013-02-27 09:56:00
5:56 AM,39.2,35.6,87,29.66,10.0,WSW,12.7,-,N/A,,Overcast,240,2013-02-27 10:56:00
6:56 AM,39.0,33.1,79,29.70,10.0,WSW,19.6,25.3,N/A,,Overcast,250,2013-02-27 11:56:00
7:47 AM,37.4,33.8,87,29.71,9.0,SW,10.4,-,N/A,,Overcast,230,2013-02-27 12:47:00
7:56 AM,37.9,34.0,86,29.73,8.0,SW,10.4,-,0.00,Rain,Light Rain,230,2013-02-27 12:56:00
8:56 AM,37.9,35.1,89,29.74,10.0,SW,11.5,-,0.00,,Overcast,230,2013-02-27 13:56:00
9:56 AM,37.9,33.1,83,29.75,10.0,WSW,15.0,-,0.00,,Overcast,240,2013-02-27 14:56:00
9:58 AM,37.4,33.8,87,29.74,10.0,WSW,13.8,21.9,N/A,,Overcast,240,2013-02-27 14:58:00
10:56 AM,37.9,33.1,83,29.76,10.0,SW,15.0,-,N/A,,Overcast,230,2013-02-27 15:56:00
11:56 AM,39.0,32.0,76,29.76,10.0,WSW,13.8,-,N/A,,Overcast,240,2013-02-27 16:56:00
12:47 PM,37.4,30.2,75,29.75,10.0,WSW,13.8,25.3,N/A,,Overcast,240,2013-02-27 17:47:00
12:56 PM,37.9,30.9,76,29.76,10.0,WSW,13.8,-,N/A,,Overcast,240,2013-02-27 17:56:00
1:36 PM,37.4,30.2,75,29.74,10.0,WSW,13.8,-,N/A,,Overcast,250,2013-02-27 18:36:00
1:56 PM,39.0,30.0,70,29.74,10.0,WSW,16.1,-,N/A,,Overcast,240,2013-02-27 18:56:00
2:56 PM,39.9,28.9,65,29.74,10.0,WSW,19.6,28.8,N/A,,Overcast,240,2013-02-27 19:56:00
3:56 PM,39.9,28.0,63,29.76,10.0,WSW,15.0,-,N/A,,Overcast,250,2013-02-27 20:56:00
4:12 PM,39.2,28.4,65,29.75,10.0,SW,17.3,23.0,0.00,,Light Ice Pellets,230,2013-02-27 21:12:00
4:29 PM,37.4,28.4,70,29.76,10.0,WSW,17.3,25.3,0.00,,Overcast,250,2013-02-27 21:29:00
4:56 PM,39.0,28.9,67,29.77,10.0,SW,12.7,-,0.00,,Overcast,220,2013-02-27 21:56:00
5:56 PM,37.9,30.0,73,29.78,10.0,SW,12.7,-,0.00,,Overcast,230,2013-02-27 22:56:00
6:56 PM,37.0,32.0,82,29.80,10.0,WSW,12.7,18.4,0.00,Rain,Light Rain,250,2013-02-27 23:56:00
7:56 PM,36.0,32.0,86,29.80,8.0,SW,11.5,-,0.00,Rain,Light Rain,220,2013-02-28 00:56:00
8:07 PM,35.6,33.8,93,29.79,8.0,SW,9.2,-,N/A,Rain,Light Rain,220,2013-02-28 01:07:00
8:23 PM,35.6,32.0,87,29.79,4.0,WSW,10.4,-,0.01,Snow,Light Snow,240,2013-02-28 01:23:00
8:32 PM,35.6,33.8,93,29.80,3.0,West,11.5,-,0.01,Snow,Light Snow,270,2013-02-28 01:32:00
8:35 PM,33.8,32.0,93,29.80,2.0,West,11.5,-,0.02,Snow,Light Snow,270,2013-02-28 01:35:00
8:40 PM,33.8,32.0,93,29.80,1.8,WSW,8.1,-,0.03,Snow,Light Snow,250,2013-02-28 01:40:00
8:48 PM,33.8,32.0,93,29.80,2.0,West,12.7,-,0.03,Snow,Light Snow,260,2013-02-28 01:48:00
8:56 PM,33.8,32.0,93,29.80,2.0,West,11.5,-,N/A,Snow,Light Snow,270,2013-02-28 01:56:00
9:09 PM,33.8,32.0,93,29.80,4.0,West,11.5,-,0.01,Snow,Light Snow,270,2013-02-28 02:09:00
9:26 PM,33.8,32.0,93,29.80,10.0,West,11.5,-,0.01,,Overcast,260,2013-02-28 02:26:00
9:56 PM,35.1,30.9,85,29.81,10.0,West,12.7,-,0.01,,Overcast,260,2013-02-28 02:56:00
10:56 PM,35.1,30.0,82,29.81,10.0,West,12.7,-,N/A,,Overcast,270,2013-02-28 03:56:00
11:16 PM,35.6,30.2,81,29.80,10.0,WSW,9.2,-,N/A,,Overcast,240,2013-02-28 04:16:00
11:56 PM,35.1,30.0,82,29.81,9.0,West,12.7,-,N/A,,Overcast,260,2013-02-28 04:56:00